CZ-6A DEB, 56593

Orbit data source: Space-Track

CZ-6A DEB, 56593 is space debris in SSO originally from a launch on Fri, 11 Nov 2022 UTC launched from the Taiyaun Space Center, China (TSC). Debris objects in space refer to the collection of defunct objects orbiting the Earth. Examples of debris include non-operational satellites, rocket bodies, and fragments generated from explosions, collisions, or faulty payload assembly.

Loading next visibility...
Identifier
56593, 2022-151ADR
Orbit
SSO
Country
Flag of CNCN / PRC
Related business
Manufacturer
SAST
Mission
Spacecraft
Bus & Motor
Unknown
Mass
Unknown
Launch date (UTC)
2022-11-11 (4 years ago)
Launch vehicle
Unknown
Launch site
Taiyaun Space Center, China (TSC)
Object type
Payload
Rocket body
Debris
Shape & HBR
Unknown shape, 0.1 m
Radar Cross Section
Medium (>0.1 m² and <1 m²)

Expand to show TLE details & history
Last TLE update: 4 days ago

TLE from 4 days ago
0 CZ-6A DEB
1 56593U 22151ADR 26169.84042697  .00000621  00000-0  18728-3 0  9991
2 56593  98.6571 214.8473 0116879  13.9933 346.4448 14.42295368165789
Epoch: 2026-06-18T20:10Z
TLE epoch observation values (Epoch: 2026-06-18T20:10:12.890Z)
Latitude
-0.00005°
Longitude
5.21562°
Altitude
672.907 km
Speed
7.563 km/s
True Right ascension
14h 19m 23s
True Declination
0° 00' 00"
Sunlit
Object was in full shadow at epoch
Visualization orbit readout
Latitude
Unknown
Longitude
Unknown
Altitude
Unknown
Speed
Unknown
Apparent Right ascension
Unknown
Apparent Declination
Unknown
Sunlit
N/A
Visualization observer readout
Local Sidereal Time
23:18:42
Azimuth
Unknown
Elevation
Unknown
Doppler factor
Unknown
Orbital elements
Apogee altitude
831.341 km
Perigee altitude
664.76 km
Semi-major axis
7,126.187 km
Eccentricity
0.01169
Inclination
98.6571°
RAAN
214.8473°
Arg. of periapsis
13.9933°
True anomaly
346.12637°
Mean anomaly
346.4448°
Eccentric anomaly
346.28604°
Mean motion
3.60792 °/min
Orbital period
99.78 mins
BSTAR
0.00018728
Loading maneuver chart data...
Computing Atmospheric mass density...
Loading historical data...
Loading historical data...
Loading historical data...
Loading historical data...
Loading historical data...
Loading historical data...
Loading historical data...

Documentation

Showing up to 5 results
|